Location: Newark
(7.0858°N, 171.3717°E)
Time: 06:26:09
(UTC+00:00)

Courier 1B - Pass Details

Date: 05 December 2020
Orbit: 962 x 1209 km, 28.3° (Epoch: 19 January)

Event Time Altitude Azimuth Distance (km) Brightness Sun altitude
Rises 10:18:05 0° 314° (NW) 3,654 - -55.7°
Reaches altitude 10° 10:23:29 10° 351° (N) 2,751 - -56.9°
Maximum altitude 10:24:58 11° 4° (N) 2,712 - -57.2°
Drops below altitude 10° 10:26:29 10° 17° (NNE) 2,783 - -57.5°
Sets 10:32:06 0° 53° (NE) 3,807 - -58.7°
